Year,Month,Day,Hour,Minute,Value (Times are PST for temperature in C)
2016,12,14,00,00,-2.80
2016,12,14,00,01,-2.80
2016,12,14,00,02,-2.80
2016,12,14,00,03,-2.80
2016,12,14,00,04,-2.80
2016,12,14,00,05,-2.80
2016,12,14,00,06,-2.80
2016,12,14,00,07,-2.80
2016,12,14,00,08,-2.80
2016,12,14,00,09,-2.80
2016,12,14,00,10,-2.80
2016,12,14,00,11,-2.80
2016,12,14,00,12,-2.80
2016,12,14,00,13,-2.70
2016,12,14,00,14,-2.70
2016,12,14,00,15,-2.70
2016,12,14,00,16,-2.70
2016,12,14,00,17,-2.70
2016,12,14,00,18,-2.60
2016,12,14,00,19,-2.60
2016,12,14,00,20,-2.60
2016,12,14,00,21,-2.60
2016,12,14,00,22,-2.60
2016,12,14,00,23,-2.60
2016,12,14,00,24,-2.60
2016,12,14,00,25,-2.60
2016,12,14,00,26,-2.60
2016,12,14,00,27,-2.60
2016,12,14,00,28,-2.60
2016,12,14,00,29,-2.60
2016,12,14,00,30,-2.60
2016,12,14,00,31,-2.70
2016,12,14,00,32,-2.70
2016,12,14,00,33,-2.70
2016,12,14,00,34,-2.70
2016,12,14,00,35,-2.80
2016,12,14,00,36,-2.80
2016,12,14,00,37,-2.80
2016,12,14,00,38,-2.80
2016,12,14,00,39,-2.90
2016,12,14,00,40,-2.90
2016,12,14,00,41,-3.00
2016,12,14,00,42,-3.00
2016,12,14,00,43,-3.00
2016,12,14,00,44,-3.00
2016,12,14,00,45,-3.10
2016,12,14,00,46,-3.10
2016,12,14,00,47,-3.10
2016,12,14,00,48,-3.10
2016,12,14,00,49,-3.20
2016,12,14,00,50,-3.20
2016,12,14,00,51,-3.20
2016,12,14,00,52,-3.10
2016,12,14,00,53,-3.10
2016,12,14,00,54,-3.10
2016,12,14,00,55,-3.10
2016,12,14,00,56,-3.10
2016,12,14,00,57,-3.10
2016,12,14,00,58,-3.20
2016,12,14,00,59,-3.20
2016,12,14,01,00,-3.20
2016,12,14,01,01,-3.20
2016,12,14,01,02,-3.30
2016,12,14,01,03,-3.30
2016,12,14,01,04,-3.30
2016,12,14,01,05,-3.30
2016,12,14,01,06,-3.30
2016,12,14,01,07,-3.30
2016,12,14,01,08,-3.30
2016,12,14,01,09,-3.30
2016,12,14,01,10,-3.40
2016,12,14,01,11,-3.40
2016,12,14,01,12,-3.40
2016,12,14,01,13,-3.40
2016,12,14,01,14,-3.40
2016,12,14,01,15,-3.40
2016,12,14,01,16,-3.40
2016,12,14,01,17,-3.40
2016,12,14,01,18,-3.30
2016,12,14,01,19,-3.30
2016,12,14,01,20,-3.30
2016,12,14,01,21,-3.30
2016,12,14,01,22,-3.30
2016,12,14,01,23,-3.30
2016,12,14,01,24,-3.30
2016,12,14,01,25,-3.30
2016,12,14,01,26,-3.20
2016,12,14,01,27,-3.20
2016,12,14,01,28,-3.10
2016,12,14,01,29,-3.20
2016,12,14,01,30,-3.10
2016,12,14,01,31,-3.10
2016,12,14,01,32,-3.10
2016,12,14,01,33,-3.00
2016,12,14,01,34,-3.00
2016,12,14,01,35,-3.00
2016,12,14,01,36,-3.00
2016,12,14,01,37,-3.00
2016,12,14,01,38,-3.00
2016,12,14,01,39,-3.00
2016,12,14,01,40,-3.10
2016,12,14,01,41,-3.10
2016,12,14,01,42,-3.10
2016,12,14,01,43,-3.10
2016,12,14,01,44,-3.10
2016,12,14,01,45,-3.10
2016,12,14,01,46,-3.00
2016,12,14,01,47,-3.00
2016,12,14,01,48,-3.00
2016,12,14,01,49,-3.00
2016,12,14,01,50,-3.00
2016,12,14,01,51,-3.00
2016,12,14,01,52,-3.00
2016,12,14,01,53,-3.00
2016,12,14,01,54,-3.10
2016,12,14,01,55,-3.10
2016,12,14,01,56,-3.10
2016,12,14,01,57,-3.10
2016,12,14,01,58,-3.10
2016,12,14,01,59,-3.20
2016,12,14,02,00,-3.20
2016,12,14,02,01,-3.20
2016,12,14,02,02,-3.10
2016,12,14,02,03,-3.10
2016,12,14,02,04,-3.10
2016,12,14,02,05,-3.10
2016,12,14,02,06,-3.10
2016,12,14,02,07,-3.10
2016,12,14,02,08,-3.00
2016,12,14,02,09,-3.00
2016,12,14,02,10,-3.00
2016,12,14,02,11,-3.00
2016,12,14,02,12,-3.00
2016,12,14,02,13,-3.00
2016,12,14,02,14,-3.10
2016,12,14,02,15,-3.10
2016,12,14,02,16,-3.20
2016,12,14,02,17,-3.30
2016,12,14,02,18,-3.30
2016,12,14,02,19,-3.30
2016,12,14,02,20,-3.30
2016,12,14,02,21,-3.30
2016,12,14,02,22,-3.30
2016,12,14,02,23,-3.30
2016,12,14,02,24,-3.30
2016,12,14,02,25,-3.30
2016,12,14,02,26,-3.30
2016,12,14,02,27,-3.40
2016,12,14,02,28,-3.50
2016,12,14,02,29,-3.50
2016,12,14,02,30,-3.50
2016,12,14,02,31,-3.60
2016,12,14,02,32,-3.60
2016,12,14,02,33,-3.60
2016,12,14,02,34,-3.60
2016,12,14,02,35,-3.60
2016,12,14,02,36,-3.60
2016,12,14,02,37,-3.60
2016,12,14,02,38,-3.60
2016,12,14,02,39,-3.60
2016,12,14,02,40,-3.60
2016,12,14,02,41,-3.60
2016,12,14,02,42,-3.70
2016,12,14,02,43,-3.70
2016,12,14,02,44,-3.70
2016,12,14,02,45,-3.80
2016,12,14,02,46,-3.80
2016,12,14,02,47,-3.90
2016,12,14,02,48,-3.90
2016,12,14,02,49,-3.80
2016,12,14,02,50,-3.80
2016,12,14,02,51,-3.80
2016,12,14,02,52,-3.80
2016,12,14,02,53,-3.80
2016,12,14,02,54,-3.80
2016,12,14,02,55,-3.90
2016,12,14,02,56,-3.90
2016,12,14,02,57,-4.00
2016,12,14,02,58,-4.10
2016,12,14,02,59,-4.10
2016,12,14,03,00,-4.10
2016,12,14,03,01,-4.10
2016,12,14,03,02,-4.00
2016,12,14,03,03,-4.00
2016,12,14,03,04,-3.90
2016,12,14,03,05,-3.90
2016,12,14,03,06,-3.80
2016,12,14,03,07,-3.70
2016,12,14,03,08,-3.70
2016,12,14,03,09,-3.70
2016,12,14,03,10,-3.70
2016,12,14,03,11,-3.70
2016,12,14,03,12,-3.70
2016,12,14,03,13,-3.80
2016,12,14,03,14,-3.80
2016,12,14,03,15,-3.80
2016,12,14,03,16,-3.80
2016,12,14,03,17,-3.80
2016,12,14,03,18,-3.80
2016,12,14,03,19,-3.80
2016,12,14,03,20,-3.70
2016,12,14,03,21,-3.70
2016,12,14,03,22,-3.70
2016,12,14,03,23,-3.70
2016,12,14,03,24,-3.70
2016,12,14,03,25,-3.70
2016,12,14,03,26,-3.70
2016,12,14,03,27,-3.70
2016,12,14,03,28,-3.70
2016,12,14,03,29,-3.70
2016,12,14,03,30,-3.70
2016,12,14,03,31,-3.60
2016,12,14,03,32,-3.50
2016,12,14,03,33,-3.50
2016,12,14,03,34,-3.40
2016,12,14,03,35,-3.40
2016,12,14,03,36,-3.40
2016,12,14,03,37,-3.30
2016,12,14,03,38,-3.30
2016,12,14,03,39,-3.30
2016,12,14,03,40,-3.40
2016,12,14,03,41,-3.40
2016,12,14,03,42,-3.50
2016,12,14,03,43,-3.50
2016,12,14,03,44,-3.50
2016,12,14,03,45,-3.50
2016,12,14,03,46,-3.50
2016,12,14,03,47,-3.50
2016,12,14,03,48,-3.40
2016,12,14,03,49,-3.40
2016,12,14,03,50,-3.30
2016,12,14,03,51,-3.30
2016,12,14,03,52,-3.30
2016,12,14,03,53,-3.30
2016,12,14,03,54,-3.20
2016,12,14,03,55,-3.20
2016,12,14,03,56,-3.20
2016,12,14,03,57,-3.20
2016,12,14,03,58,-3.20
2016,12,14,03,59,-3.20
2016,12,14,04,00,-3.20
2016,12,14,04,01,-3.10
2016,12,14,04,02,-3.10
2016,12,14,04,03,-3.10
2016,12,14,04,04,-3.00
2016,12,14,04,05,-3.00
2016,12,14,04,06,-3.00
2016,12,14,04,07,-2.90
2016,12,14,04,08,-2.90
2016,12,14,04,09,-2.90
2016,12,14,04,10,-2.90
2016,12,14,04,11,-2.90
2016,12,14,04,12,-2.90
2016,12,14,04,13,-2.90
2016,12,14,04,14,-2.90
2016,12,14,04,15,-2.90
2016,12,14,04,16,-2.90
2016,12,14,04,17,-2.90
2016,12,14,04,18,-2.90
2016,12,14,04,19,-2.90
2016,12,14,04,20,-2.90
2016,12,14,04,21,-2.90
2016,12,14,04,22,-2.90
2016,12,14,04,23,-2.90
2016,12,14,04,24,-2.90
2016,12,14,04,25,-2.90
2016,12,14,04,26,-2.90
2016,12,14,04,27,-2.90
2016,12,14,04,28,-3.00
2016,12,14,04,29,-3.00
2016,12,14,04,30,-3.00
2016,12,14,04,31,-3.00
2016,12,14,04,32,-3.00
2016,12,14,04,33,-3.00
2016,12,14,04,34,-3.00
2016,12,14,04,35,-3.00
2016,12,14,04,36,-3.00
2016,12,14,04,37,-3.00
2016,12,14,04,38,-3.10
2016,12,14,04,39,-3.10
2016,12,14,04,40,-3.10
2016,12,14,04,41,-3.10
2016,12,14,04,42,-3.10
2016,12,14,04,43,-3.20
2016,12,14,04,44,-3.20
2016,12,14,04,45,-3.30
2016,12,14,04,46,-3.30
2016,12,14,04,47,-3.30
2016,12,14,04,48,-3.30
2016,12,14,04,49,-3.30
2016,12,14,04,50,-3.30
2016,12,14,04,51,-3.30
2016,12,14,04,52,-3.30
2016,12,14,04,53,-3.30
2016,12,14,04,54,-3.30
2016,12,14,04,55,-3.30
2016,12,14,04,56,-3.30
2016,12,14,04,57,-3.30
2016,12,14,04,58,-3.30
2016,12,14,04,59,-3.30
2016,12,14,05,00,-3.30
2016,12,14,05,01,-3.30
2016,12,14,05,02,-3.30
2016,12,14,05,03,-3.40
2016,12,14,05,04,-3.40
2016,12,14,05,05,-3.40
2016,12,14,05,06,-3.40
2016,12,14,05,07,-3.40
2016,12,14,05,08,-3.40
2016,12,14,05,09,-3.40
2016,12,14,05,10,-3.30
2016,12,14,05,11,-3.30
2016,12,14,05,12,-3.30
2016,12,14,05,13,-3.30
2016,12,14,05,14,-3.30
2016,12,14,05,15,-3.30
2016,12,14,05,16,-3.30
2016,12,14,05,17,-3.30
2016,12,14,05,18,-3.30
2016,12,14,05,19,-3.30
2016,12,14,05,20,-3.30
2016,12,14,05,21,-3.30
2016,12,14,05,22,-3.20
2016,12,14,05,23,-3.20
2016,12,14,05,24,-3.20
2016,12,14,05,25,-3.20
2016,12,14,05,26,-3.20
2016,12,14,05,27,-3.20
2016,12,14,05,28,-3.20
2016,12,14,05,29,-3.20
2016,12,14,05,30,-3.20
2016,12,14,05,31,-3.30
2016,12,14,05,32,-3.30
2016,12,14,05,33,-3.30
2016,12,14,05,34,-3.30
2016,12,14,05,35,-3.30
2016,12,14,05,36,-3.30
2016,12,14,05,37,-3.40
2016,12,14,05,38,-3.50
2016,12,14,05,39,-3.50
2016,12,14,05,40,-3.60
2016,12,14,05,41,-3.60
2016,12,14,05,42,-3.70
2016,12,14,05,43,-3.70
2016,12,14,05,44,-3.80
2016,12,14,05,45,-3.80
2016,12,14,05,46,-3.90
2016,12,14,05,47,-3.90
2016,12,14,05,48,-3.90
2016,12,14,05,49,-3.90
2016,12,14,05,50,-3.90
2016,12,14,05,51,-3.90
2016,12,14,05,52,-3.80
2016,12,14,05,53,-3.80
2016,12,14,05,54,-3.80
2016,12,14,05,55,-3.70
2016,12,14,05,56,-3.70
2016,12,14,05,57,-3.70
2016,12,14,05,58,-3.70
2016,12,14,05,59,-3.70
2016,12,14,06,00,-3.70
2016,12,14,06,01,-3.70
2016,12,14,06,02,-3.70
2016,12,14,06,03,-3.70
2016,12,14,06,04,-3.70
2016,12,14,06,05,-3.70
2016,12,14,06,06,-3.70
2016,12,14,06,07,-3.70
2016,12,14,06,08,-3.70
2016,12,14,06,09,-3.70
2016,12,14,06,10,-3.60
2016,12,14,06,11,-3.50
2016,12,14,06,12,-3.50
2016,12,14,06,13,-3.50
2016,12,14,06,14,-3.50
2016,12,14,06,15,-3.50
2016,12,14,06,16,-3.50
2016,12,14,06,17,-3.60
2016,12,14,06,18,-3.70
2016,12,14,06,19,-3.70
2016,12,14,06,20,-3.60
2016,12,14,06,21,-3.60
2016,12,14,06,22,-3.60
2016,12,14,06,23,-3.60
2016,12,14,06,24,-3.50
2016,12,14,06,25,-3.50
2016,12,14,06,26,-3.50
2016,12,14,06,27,-3.60
2016,12,14,06,28,-3.60
2016,12,14,06,29,-3.60
2016,12,14,06,30,-3.60
2016,12,14,06,31,-3.60
2016,12,14,06,32,-3.70
2016,12,14,06,33,-3.70
2016,12,14,06,34,-3.70
2016,12,14,06,35,-3.70
2016,12,14,06,36,-3.70
2016,12,14,06,37,-3.70
2016,12,14,06,38,-3.70
2016,12,14,06,39,-3.70
2016,12,14,06,40,-3.60
2016,12,14,06,41,-3.60
2016,12,14,06,42,-3.60
2016,12,14,06,43,-3.50
2016,12,14,06,44,-3.50
2016,12,14,06,45,-3.40
2016,12,14,06,46,-3.30
2016,12,14,06,47,-3.30
2016,12,14,06,48,-3.30
2016,12,14,06,49,-3.30
2016,12,14,06,50,-3.30
2016,12,14,06,51,-3.30
2016,12,14,06,52,-3.30
2016,12,14,06,53,-3.30
2016,12,14,06,54,-3.30
2016,12,14,06,55,-3.30
2016,12,14,06,56,-3.30
2016,12,14,06,57,-3.30
2016,12,14,06,58,-3.40
2016,12,14,06,59,-3.40
2016,12,14,07,00,-3.50
2016,12,14,07,01,-3.50
2016,12,14,07,02,-3.60
2016,12,14,07,03,-3.60
2016,12,14,07,04,-3.60
2016,12,14,07,05,-3.60
2016,12,14,07,06,-3.60
2016,12,14,07,07,-3.50
2016,12,14,07,08,-3.50
2016,12,14,07,09,-3.40
2016,12,14,07,10,-3.40
2016,12,14,07,11,-3.30
2016,12,14,07,12,-3.30
2016,12,14,07,13,-3.20
2016,12,14,07,14,-3.20
2016,12,14,07,15,-3.10
2016,12,14,07,16,-3.00
2016,12,14,07,17,-3.00
2016,12,14,07,18,-3.00
2016,12,14,07,19,-2.90
2016,12,14,07,20,-2.90
2016,12,14,07,21,-2.80
2016,12,14,07,22,-2.80
2016,12,14,07,23,-2.80
2016,12,14,07,24,-2.80
2016,12,14,07,25,-2.70
2016,12,14,07,26,-2.70
2016,12,14,07,27,-2.70
2016,12,14,07,28,-2.70
2016,12,14,07,29,-2.60
2016,12,14,07,30,-2.60
2016,12,14,07,31,-2.70
2016,12,14,07,32,-2.70
2016,12,14,07,33,-2.70
2016,12,14,07,34,-2.70
2016,12,14,07,35,-2.60
2016,12,14,07,36,-2.60
2016,12,14,07,37,-2.50
2016,12,14,07,38,-2.50
2016,12,14,07,39,-2.40
2016,12,14,07,40,-2.40
2016,12,14,07,41,-2.30
2016,12,14,07,42,-2.30
2016,12,14,07,43,-2.30
2016,12,14,07,44,-2.30
2016,12,14,07,45,-2.30
2016,12,14,07,46,-2.30
2016,12,14,07,47,-2.30
2016,12,14,07,48,-2.30
2016,12,14,07,49,-2.30
2016,12,14,07,50,-2.30
2016,12,14,07,51,-2.30
2016,12,14,07,52,-2.20
2016,12,14,07,53,-2.20
2016,12,14,07,54,-2.20
2016,12,14,07,55,-2.10
2016,12,14,07,56,-2.10
2016,12,14,07,57,-2.10
2016,12,14,07,58,-2.10
2016,12,14,07,59,-2.10
2016,12,14,08,00,-2.10
2016,12,14,08,01,-2.10
2016,12,14,08,02,-2.10
2016,12,14,08,03,-2.10
2016,12,14,08,04,-2.10
2016,12,14,08,05,-2.10
2016,12,14,08,06,-2.10
2016,12,14,08,07,-2.10
2016,12,14,08,08,-2.10
2016,12,14,08,09,-2.10
2016,12,14,08,10,-2.10
2016,12,14,08,11,-2.10
2016,12,14,08,12,-2.20
2016,12,14,08,13,-2.20
2016,12,14,08,14,-2.20
2016,12,14,08,15,-2.20
2016,12,14,08,16,-2.20
2016,12,14,08,17,-2.10
2016,12,14,08,18,-2.10
2016,12,14,08,19,-2.00
2016,12,14,08,20,-2.00
2016,12,14,08,21,-2.00
2016,12,14,08,22,-2.00
2016,12,14,08,23,-1.90
2016,12,14,08,24,-1.90
2016,12,14,08,25,-1.90
2016,12,14,08,26,-1.90
2016,12,14,08,27,-1.90
2016,12,14,08,28,-1.90
2016,12,14,08,29,-1.80
2016,12,14,08,30,-1.80
2016,12,14,08,31,-1.80
2016,12,14,08,32,-1.80
2016,12,14,08,33,-1.80
2016,12,14,08,34,-1.80
2016,12,14,08,35,-1.90
2016,12,14,08,36,-1.90
2016,12,14,08,37,-1.90
2016,12,14,08,38,-1.90
2016,12,14,08,39,-1.90
2016,12,14,08,40,-1.90
2016,12,14,08,41,-1.90
2016,12,14,08,42,-1.90
2016,12,14,08,43,-1.80
2016,12,14,08,44,-1.80
2016,12,14,08,45,-1.80
2016,12,14,08,46,-1.80
2016,12,14,08,47,-1.80
2016,12,14,08,48,-1.80
2016,12,14,08,49,-1.80
2016,12,14,08,50,-1.80
2016,12,14,08,51,-1.80
2016,12,14,08,52,-1.80
2016,12,14,08,53,-1.80
2016,12,14,08,54,-1.80
2016,12,14,08,55,-1.80
2016,12,14,08,56,-1.80
2016,12,14,08,57,-1.80
2016,12,14,08,58,-1.80
2016,12,14,08,59,-1.80
2016,12,14,09,00,-1.80
2016,12,14,09,01,-1.80
2016,12,14,09,02,-1.80
2016,12,14,09,03,-1.80
2016,12,14,09,04,-1.80
2016,12,14,09,05,-1.80
2016,12,14,09,06,-1.70
2016,12,14,09,07,-1.70
2016,12,14,09,08,-1.70
2016,12,14,09,09,-1.60
2016,12,14,09,10,-1.60
2016,12,14,09,11,-1.50
2016,12,14,09,12,-1.50
2016,12,14,09,13,-1.50
2016,12,14,09,14,-1.40
2016,12,14,09,15,-1.40
2016,12,14,09,16,-1.40
2016,12,14,09,17,-1.40
2016,12,14,09,18,-1.40
2016,12,14,09,19,-1.40
2016,12,14,09,20,-1.40
2016,12,14,09,21,-1.40
2016,12,14,09,22,-1.40
2016,12,14,09,23,-1.40
2016,12,14,09,24,-1.40
2016,12,14,09,25,-1.40
2016,12,14,09,26,-1.40
2016,12,14,09,27,-1.40
2016,12,14,09,28,-1.30
2016,12,14,09,29,-1.30
2016,12,14,09,30,-1.30
2016,12,14,09,31,-1.30
2016,12,14,09,32,-1.20
2016,12,14,09,33,-1.20
2016,12,14,09,34,-1.10
2016,12,14,09,35,-1.10
2016,12,14,09,36,-1.00
2016,12,14,09,37,-0.90
2016,12,14,09,38,-0.90
2016,12,14,09,39,-0.80
2016,12,14,09,40,-0.80
2016,12,14,09,41,-0.70
2016,12,14,09,42,-0.70
2016,12,14,09,43,-0.60
2016,12,14,09,44,-0.60
2016,12,14,09,45,-0.50
2016,12,14,09,46,-0.40
2016,12,14,09,47,-0.40
2016,12,14,09,48,-0.40
2016,12,14,09,49,-0.30
2016,12,14,09,50,-0.30
2016,12,14,09,51,-0.30
2016,12,14,09,52,-0.30
2016,12,14,09,53,-0.30
2016,12,14,09,54,-0.20
2016,12,14,09,55,-0.20
2016,12,14,09,56,-0.20
2016,12,14,09,57,-0.20
2016,12,14,09,58,-0.10
2016,12,14,09,59,-0.10
2016,12,14,10,00,-0.10
2016,12,14,10,01,-0.10
2016,12,14,10,02,-0.10
2016,12,14,10,03,-0.10
2016,12,14,10,04,-0.10
2016,12,14,10,05,-0.10
2016,12,14,10,06,-0.10
2016,12,14,10,07,-0.10
2016,12,14,10,08,-0.10
2016,12,14,10,09,-0.10
2016,12,14,10,10,-0.10
2016,12,14,10,11,-0.10
2016,12,14,10,12,-0.10
2016,12,14,10,13,-0.10
2016,12,14,10,14,-0.10
2016,12,14,10,15,-0.10
2016,12,14,10,16,-0.10
2016,12,14,10,17,-0.10
2016,12,14,10,18,-0.10
2016,12,14,10,19,0.00
2016,12,14,10,20,0.10
2016,12,14,10,21,0.10
2016,12,14,10,22,0.10
2016,12,14,10,23,0.10
2016,12,14,10,24,0.10
2016,12,14,10,25,0.10
2016,12,14,10,26,0.10
2016,12,14,10,27,0.10
2016,12,14,10,28,0.10
2016,12,14,10,29,0.10
2016,12,14,10,30,0.10
2016,12,14,10,31,0.10
2016,12,14,10,32,0.10
2016,12,14,10,33,0.20
2016,12,14,10,34,0.20
2016,12,14,10,35,0.20
2016,12,14,10,36,0.20
2016,12,14,10,37,0.20
2016,12,14,10,38,0.30
2016,12,14,10,39,0.30
2016,12,14,10,40,0.30
2016,12,14,10,41,0.30
2016,12,14,10,42,0.30
2016,12,14,10,43,0.30
2016,12,14,10,44,0.30
2016,12,14,10,45,0.30
2016,12,14,10,46,0.30
2016,12,14,10,47,0.30
2016,12,14,10,48,0.30
2016,12,14,10,49,0.30
2016,12,14,10,50,0.40
2016,12,14,10,51,0.30
2016,12,14,10,52,0.30
2016,12,14,10,53,0.30
2016,12,14,10,54,0.30
2016,12,14,10,55,0.30
2016,12,14,10,56,0.20
2016,12,14,10,57,0.20
2016,12,14,10,58,0.20
2016,12,14,10,59,0.20
2016,12,14,11,00,0.20
2016,12,14,11,01,0.20
2016,12,14,11,02,0.20
2016,12,14,11,03,0.20
2016,12,14,11,04,0.20
2016,12,14,11,05,0.20
2016,12,14,11,06,0.20
2016,12,14,11,07,0.10
2016,12,14,11,08,0.10
2016,12,14,11,09,0.10
2016,12,14,11,10,0.10
2016,12,14,11,11,0.10
2016,12,14,11,12,0.10
2016,12,14,11,13,0.10
2016,12,14,11,14,0.10
2016,12,14,11,15,0.10
2016,12,14,11,16,0.10
2016,12,14,11,17,0.10
2016,12,14,11,18,0.10
2016,12,14,11,19,0.10
2016,12,14,11,20,0.10
2016,12,14,11,21,0.10
2016,12,14,11,22,0.10
2016,12,14,11,23,0.10
2016,12,14,11,24,0.10
2016,12,14,11,25,0.10
2016,12,14,11,26,0.10
2016,12,14,11,27,0.10
2016,12,14,11,28,0.10
2016,12,14,11,29,0.10
2016,12,14,11,30,0.10
2016,12,14,11,31,0.10
2016,12,14,11,32,0.10
2016,12,14,11,33,0.10
2016,12,14,11,34,0.10
2016,12,14,11,35,0.10
2016,12,14,11,36,0.10
2016,12,14,11,37,0.10
2016,12,14,11,38,0.10
2016,12,14,11,39,0.10
2016,12,14,11,40,0.10
2016,12,14,11,41,0.10
2016,12,14,11,42,0.10
2016,12,14,11,43,0.10
2016,12,14,11,44,0.10
2016,12,14,11,45,0.10
2016,12,14,11,46,0.10
2016,12,14,11,47,0.10
2016,12,14,11,48,0.10
2016,12,14,11,49,0.10
2016,12,14,11,50,0.10
2016,12,14,11,51,0.10
2016,12,14,11,52,0.10
2016,12,14,11,53,0.10
2016,12,14,11,54,0.10
2016,12,14,11,55,0.10
2016,12,14,11,56,0.10
2016,12,14,11,57,0.10
2016,12,14,11,58,0.10
2016,12,14,11,59,0.10
2016,12,14,12,00,0.10
2016,12,14,12,01,0.10
2016,12,14,12,02,0.10
2016,12,14,12,03,0.10
2016,12,14,12,04,0.10
2016,12,14,12,05,0.10
2016,12,14,12,06,0.10
2016,12,14,12,07,0.10
2016,12,14,12,08,0.10
2016,12,14,12,09,0.10
2016,12,14,12,10,0.10
2016,12,14,12,11,0.10
2016,12,14,12,12,0.10
2016,12,14,12,13,0.10
2016,12,14,12,14,0.10
2016,12,14,12,15,0.10
2016,12,14,12,16,0.10
2016,12,14,12,17,0.10
2016,12,14,12,18,0.10
2016,12,14,12,19,0.10
2016,12,14,12,20,0.10
2016,12,14,12,21,0.10
2016,12,14,12,22,0.10
2016,12,14,12,23,0.10
2016,12,14,12,24,0.10
2016,12,14,12,25,0.10
2016,12,14,12,26,0.10
2016,12,14,12,27,0.10
2016,12,14,12,28,0.10
2016,12,14,12,29,0.10
2016,12,14,12,30,0.10
2016,12,14,12,31,0.10
2016,12,14,12,32,0.10
2016,12,14,12,33,0.10
2016,12,14,12,34,0.10
2016,12,14,12,35,0.10
2016,12,14,12,36,0.10
2016,12,14,12,37,0.10
2016,12,14,12,38,0.10
2016,12,14,12,39,0.10
2016,12,14,12,40,0.10
2016,12,14,12,41,0.10
2016,12,14,12,42,0.10
2016,12,14,12,43,0.20
2016,12,14,12,44,0.20
2016,12,14,12,45,0.20
2016,12,14,12,46,0.20
2016,12,14,12,47,0.20
2016,12,14,12,48,0.20
2016,12,14,12,49,0.20
2016,12,14,12,50,0.20
2016,12,14,12,51,0.10
2016,12,14,12,52,0.10
2016,12,14,12,53,0.10
2016,12,14,12,54,0.10
2016,12,14,12,55,0.10
2016,12,14,12,56,0.10
2016,12,14,12,57,0.10
2016,12,14,12,58,0.10
2016,12,14,12,59,0.10
2016,12,14,13,00,0.10
2016,12,14,13,01,0.10
2016,12,14,13,02,0.10
2016,12,14,13,03,0.10
2016,12,14,13,04,0.10
2016,12,14,13,05,0.10
2016,12,14,13,06,0.10
2016,12,14,13,07,0.10
2016,12,14,13,08,0.10
2016,12,14,13,09,0.10
2016,12,14,13,10,0.10
2016,12,14,13,11,0.10
2016,12,14,13,12,0.10
2016,12,14,13,13,0.10
2016,12,14,13,14,0.10
2016,12,14,13,15,0.10
2016,12,14,13,16,0.10
2016,12,14,13,17,0.10
2016,12,14,13,18,0.10
2016,12,14,13,19,0.10
2016,12,14,13,20,0.10
2016,12,14,13,21,0.10
2016,12,14,13,22,0.10
2016,12,14,13,23,0.10
2016,12,14,13,24,0.10
2016,12,14,13,25,0.10
2016,12,14,13,26,0.10
2016,12,14,13,27,0.10
2016,12,14,13,28,0.10
2016,12,14,13,29,0.10
2016,12,14,13,30,0.10
2016,12,14,13,31,0.10
2016,12,14,13,32,0.20
2016,12,14,13,33,0.20
2016,12,14,13,34,0.20
2016,12,14,13,35,0.20
2016,12,14,13,36,0.20
2016,12,14,13,37,0.30
2016,12,14,13,38,0.20
2016,12,14,13,39,0.30
2016,12,14,13,40,0.30
2016,12,14,13,41,0.30
2016,12,14,13,42,0.30
2016,12,14,13,43,0.30
2016,12,14,13,44,0.30
2016,12,14,13,45,0.30
2016,12,14,13,46,0.30
2016,12,14,13,47,0.30
2016,12,14,13,48,0.30
2016,12,14,13,49,0.30
2016,12,14,13,50,0.30
2016,12,14,13,51,0.30
2016,12,14,13,52,0.30
2016,12,14,13,53,0.30
2016,12,14,13,54,0.30
2016,12,14,13,55,0.30
2016,12,14,13,56,0.30
2016,12,14,13,57,0.30
2016,12,14,13,58,0.30
2016,12,14,13,59,0.30
2016,12,14,14,00,0.30
2016,12,14,14,01,0.40
2016,12,14,14,02,0.40
2016,12,14,14,03,0.40
2016,12,14,14,04,0.40
2016,12,14,14,05,0.40
2016,12,14,14,06,0.40
2016,12,14,14,07,0.40
2016,12,14,14,08,0.40
2016,12,14,14,09,0.40
2016,12,14,14,10,0.40
2016,12,14,14,11,0.40
2016,12,14,14,12,0.50
2016,12,14,14,13,0.50
2016,12,14,14,14,0.50
2016,12,14,14,15,0.50
2016,12,14,14,16,0.50
2016,12,14,14,17,0.60
2016,12,14,14,18,0.60
2016,12,14,14,19,0.60
2016,12,14,14,20,0.60
2016,12,14,14,21,0.60
2016,12,14,14,22,0.60
2016,12,14,14,23,0.60
2016,12,14,14,24,0.60
2016,12,14,14,25,0.70
2016,12,14,14,26,0.70
2016,12,14,14,27,0.70
2016,12,14,14,28,0.70
2016,12,14,14,29,0.70
2016,12,14,14,30,0.70
2016,12,14,14,31,0.70
2016,12,14,14,32,0.70
2016,12,14,14,33,0.70
2016,12,14,14,34,0.70
2016,12,14,14,35,0.70
2016,12,14,14,36,0.60
2016,12,14,14,37,0.60
2016,12,14,14,38,0.60
2016,12,14,14,39,0.60
2016,12,14,14,40,0.60
2016,12,14,14,41,0.60
2016,12,14,14,42,0.60
2016,12,14,14,43,0.60
2016,12,14,14,44,0.50
2016,12,14,14,45,0.50
2016,12,14,14,46,0.50
2016,12,14,14,47,0.50
2016,12,14,14,48,0.50
2016,12,14,14,49,0.50
2016,12,14,14,50,0.40
2016,12,14,14,51,0.40
2016,12,14,14,52,0.40
2016,12,14,14,53,0.40
2016,12,14,14,54,0.40
2016,12,14,14,55,0.40
2016,12,14,14,56,0.40
2016,12,14,14,57,0.40
2016,12,14,14,58,0.40
2016,12,14,14,59,0.40
2016,12,14,15,00,0.40
2016,12,14,15,01,0.40
2016,12,14,15,02,0.40
2016,12,14,15,03,0.40
2016,12,14,15,04,0.40
2016,12,14,15,05,0.40
2016,12,14,15,06,0.40
2016,12,14,15,07,0.40
2016,12,14,15,08,0.40
2016,12,14,15,09,0.40
2016,12,14,15,10,0.40
2016,12,14,15,11,0.40
2016,12,14,15,12,0.40
2016,12,14,15,13,0.40
2016,12,14,15,14,0.40
2016,12,14,15,15,0.40
2016,12,14,15,16,0.40
2016,12,14,15,17,0.40
2016,12,14,15,18,0.40
2016,12,14,15,19,0.40
2016,12,14,15,20,0.40
2016,12,14,15,21,0.40
2016,12,14,15,22,0.40
2016,12,14,15,23,0.40
2016,12,14,15,24,0.40
2016,12,14,15,25,0.40
2016,12,14,15,26,0.40
2016,12,14,15,27,0.40
2016,12,14,15,28,0.40
2016,12,14,15,29,0.40
2016,12,14,15,30,0.40
2016,12,14,15,31,0.40
2016,12,14,15,32,0.40
2016,12,14,15,33,0.40
2016,12,14,15,34,0.40
2016,12,14,15,35,0.40
2016,12,14,15,36,0.40
2016,12,14,15,37,0.40
2016,12,14,15,38,0.40
2016,12,14,15,39,0.40
2016,12,14,15,40,0.40
2016,12,14,15,41,0.40
2016,12,14,15,42,0.40
2016,12,14,15,43,0.40
2016,12,14,15,44,0.40
2016,12,14,15,45,0.40
2016,12,14,15,46,0.40
2016,12,14,15,47,0.40
2016,12,14,15,48,0.40
2016,12,14,15,49,0.40
2016,12,14,15,50,0.40
2016,12,14,15,51,0.40
2016,12,14,15,52,0.40
2016,12,14,15,53,0.40
2016,12,14,15,54,0.40
2016,12,14,15,55,0.40
2016,12,14,15,56,0.40
2016,12,14,15,57,0.40
2016,12,14,15,58,0.40
2016,12,14,15,59,0.40
2016,12,14,16,00,0.40
2016,12,14,16,01,0.40
2016,12,14,16,02,0.40
2016,12,14,16,03,0.40
2016,12,14,16,04,0.40
2016,12,14,16,05,0.40
2016,12,14,16,06,0.40
2016,12,14,16,07,0.40
2016,12,14,16,08,0.40
2016,12,14,16,09,0.40
2016,12,14,16,10,0.40
2016,12,14,16,11,0.40
2016,12,14,16,12,0.30
2016,12,14,16,13,0.30
2016,12,14,16,14,0.30
2016,12,14,16,15,0.30
2016,12,14,16,16,0.20
2016,12,14,16,17,0.20
2016,12,14,16,18,0.20
2016,12,14,16,19,0.20
2016,12,14,16,20,0.20
2016,12,14,16,21,0.20
2016,12,14,16,22,0.20
2016,12,14,16,23,0.20
2016,12,14,16,24,0.20
2016,12,14,16,25,0.20
2016,12,14,16,26,0.20
2016,12,14,16,27,0.20
2016,12,14,16,28,0.20
2016,12,14,16,29,0.10
2016,12,14,16,30,0.10
2016,12,14,16,31,0.10
2016,12,14,16,32,0.10
2016,12,14,16,33,0.10
2016,12,14,16,34,0.10
2016,12,14,16,35,0.10
2016,12,14,16,36,0.10
2016,12,14,16,37,0.10
2016,12,14,16,38,0.10
2016,12,14,16,39,0.10
2016,12,14,16,40,0.10
2016,12,14,16,41,0.10
2016,12,14,16,42,0.10
2016,12,14,16,43,0.10
2016,12,14,16,44,0.10
2016,12,14,16,45,0.10
2016,12,14,16,46,0.10
2016,12,14,16,47,0.00
2016,12,14,16,48,-0.10
2016,12,14,16,49,-0.10
2016,12,14,16,50,-0.10
2016,12,14,16,51,-0.10
2016,12,14,16,52,-0.10
2016,12,14,16,53,-0.10
2016,12,14,16,54,-0.10
2016,12,14,16,55,-0.10
2016,12,14,16,56,-0.10
2016,12,14,16,57,-0.10
2016,12,14,16,58,-0.10
2016,12,14,16,59,-0.10
2016,12,14,17,00,-0.10
2016,12,14,17,01,-0.10
2016,12,14,17,02,-0.10
2016,12,14,17,03,-0.10
2016,12,14,17,04,-0.10
2016,12,14,17,05,-0.10
2016,12,14,17,06,-0.10
2016,12,14,17,07,-0.10
2016,12,14,17,08,-0.10
2016,12,14,17,09,-0.10
2016,12,14,17,10,-0.10
2016,12,14,17,11,-0.10
2016,12,14,17,12,-0.10
2016,12,14,17,13,-0.10
2016,12,14,17,14,-0.10
2016,12,14,17,15,-0.10
2016,12,14,17,16,-0.10
2016,12,14,17,17,-0.10
2016,12,14,17,18,-0.10
2016,12,14,17,19,-0.10
2016,12,14,17,20,-0.10
2016,12,14,17,21,-0.10
2016,12,14,17,22,-0.10
2016,12,14,17,23,-0.10
2016,12,14,17,24,-0.20
2016,12,14,17,25,-0.20
2016,12,14,17,26,-0.20
2016,12,14,17,27,-0.20
2016,12,14,17,28,-0.20
2016,12,14,17,29,-0.20
2016,12,14,17,30,-0.20
2016,12,14,17,31,-0.20
2016,12,14,17,32,-0.20
2016,12,14,17,33,-0.20
2016,12,14,17,34,-0.20
2016,12,14,17,35,-0.10
2016,12,14,17,36,-0.10